Greenville, MS

6:25 AM CDT on April 30, 2017 (GMT -0500)
Mid Delta Regional

Weather History for KGLH - December, 2011

Change the Weather History Date:

Wednesday, December 7, 2011

  Actual Average Record
Temperature  
Mean Temperature 34 °F 47 °F  
Max Temperature 39 °F 56 °F 82 °F (1951)
Min Temperature 28 °F 37 °F 15 °F (1950)
Degree Days  
Heating Degree Days 31 19  
Month to date heating degree days 133 125  
Since 1 July heating degree days 575 587  
Cooling Degree Days 0 0  
Month to date cooling degree days 0 0  
Year to date cooling degree days 2469 2186  
Moisture  
Dew Point 31 °F    
Average Humidity 88    
Maximum Humidity 100    
Minimum Humidity 76    
Precipitation  
Precipitation 0.02 in 0.21 in 2.26 in (1936)
Month to date precipitation 2.80 1.43  
Year to date precipitation 29.42 48.45  
Sea Level Pressure  
Sea Level Pressure 30.25 in    
Wind  
Wind Speed 9 mph (WNW)    
Max Wind Speed 21 mph    
Max Gust Speed 26 mph    
Visibility 7 miles    
Events Rain , Snow    
T = Trace of Precipitation, MM = Missing Value Source: NWS Daily Summary

Daily Weather History Graph

Daily Weather History Graph

Search for Another Location

Airport or City:

Trip Planner

Search our weather history database for the weather conditions in past years. The results will help you decide how hot, cold, wet, or windy it might be!

Date:

Astronomy

Dec. 07, 2011 Rise Set
Actual Time 6:54 AM CST 4:55 PM CST
Civil Twilight 6:27 AM CST 5:23 PM CST
Nautical Twilight 5:56 AM CST 5:54 PM CST
Astronomical Twilight 5:26 AM CST 6:24 PM CST
Moon 2:54 PM CST (12/7) 4:13 AM CST (12/7)
Length of Visible Light 10h 55m
Length of Day
10h 01m
Waxing Gibbous, 92% of the Moon is Illuminated
Dec 7
Waxing Gibbous
Dec 10
Full
Dec 17
Last Quarter
Dec 24
New
Jan 1
First Quarter

Hourly Weather History & Observations

Time (CST) Temp. Windchill Dew Point Humidity Pressure Visibility Wind Dir Wind Speed Gust Speed Precip Events Conditions
12:12 AM 35.6 °F 28.6 °F 35.6 °F 100% 30.15 in 6.0 mi NW 9.2 mph - 0.00 in Rain Light Rain
12:32 AM 35.6 °F 29.2 °F 35.6 °F 100% 30.15 in 5.0 mi WNW 8.1 mph - 0.00 in Rain Light Rain
12:53 AM 36.0 °F 29.0 °F 34.0 °F 93% 30.17 in 5.0 mi WNW 9.2 mph - 0.00 in   Overcast
1:39 AM 35.6 °F 28.0 °F 33.8 °F 93% 30.14 in 10.0 mi NW 10.4 mph - N/A   Overcast
1:53 AM 35.1 °F 27.4 °F 34.0 °F 96% 30.18 in 10.0 mi NW 10.4 mph - 0.00 in Rain Light Rain
2:10 AM 35.6 °F 28.0 °F 33.8 °F 93% 30.14 in 8.0 mi NW 10.4 mph - 0.01 in Rain Light Rain
2:53 AM 35.1 °F 26.9 °F 34.0 °F 96% 30.17 in 7.0 mi WNW 11.5 mph - 0.01 in Rain Light Rain
3:53 AM 33.1 °F 23.9 °F 32.0 °F 96% 30.18 in 3.0 mi NW 12.7 mph - 0.01 in Snow Light Snow
4:01 AM 33.8 °F 25.3 °F 32.0 °F 93% 30.15 in 2.0 mi NW 11.5 mph - 0.00 in Snow Light Snow
4:19 AM 33.8 °F 23.9 °F 32.0 °F 93% 30.16 in 3.0 mi WNW 15.0 mph - 0.00 in Snow Light Snow
4:31 AM 33.8 °F 24.3 °F 30.2 °F 87% 30.16 in 9.0 mi NW 13.8 mph 21.9 mph 0.00 in   Overcast
4:45 AM 33.8 °F 26.4 °F 30.2 °F 87% 30.16 in 9.0 mi WNW 9.2 mph - 0.00 in   Overcast
4:53 AM 33.1 °F 23.9 °F 32.0 °F 96% 30.19 in 7.0 mi WNW 12.7 mph - 0.00 in   Overcast
5:53 AM 33.1 °F 22.2 °F 30.9 °F 92% 30.22 in 2.5 mi WNW 17.3 mph 21.9 mph 0.00 in Snow Light Snow
6:08 AM 33.8 °F 23.2 °F 30.2 °F 87% 30.19 in 2.0 mi WNW 17.3 mph - 0.00 in Snow Light Snow
6:28 AM 33.8 °F 24.8 °F 30.2 °F 87% 30.21 in 2.5 mi NW 12.7 mph - 0.00 in Snow Light Snow
6:42 AM 33.8 °F 23.2 °F 30.2 °F 87% 30.22 in 3.0 mi NW 17.3 mph 23.0 mph 0.00 in Snow Light Snow
6:51 AM 33.8 °F 24.8 °F 30.2 °F 87% 30.22 in 5.0 mi NW 12.7 mph 23.0 mph 0.00 in   Overcast
6:53 AM 33.1 °F 23.4 °F 30.9 °F 92% 30.26 in 5.0 mi NW 13.8 mph - 0.00 in Snow Light Snow
7:11 AM 33.8 °F 24.8 °F 30.2 °F 87% 30.23 in 6.0 mi WNW 12.7 mph - 0.00 in Snow Light Snow
7:23 AM 33.8 °F 24.3 °F 30.2 °F 87% 30.24 in 7.0 mi WNW 13.8 mph - 0.00 in   Overcast
7:53 AM 33.1 °F 22.6 °F 30.9 °F 92% 30.28 in 7.0 mi WNW 16.1 mph - 0.00 in   Overcast
8:08 AM 33.8 °F 23.9 °F 30.2 °F 87% 30.26 in 7.0 mi WNW 15.0 mph - N/A   Overcast
8:43 AM 33.8 °F 24.8 °F 30.2 °F 87% 30.28 in 7.0 mi WNW 12.7 mph 21.9 mph N/A   Overcast
8:53 AM 34.0 °F 24.2 °F 30.0 °F 85% 30.32 in 7.0 mi NW 15.0 mph 21.9 mph N/A   Overcast
9:53 AM 34.0 °F 24.2 °F 30.0 °F 85% 30.33 in 7.0 mi NW 15.0 mph - N/A   Overcast
10:53 AM 35.1 °F 25.2 °F 30.0 °F 82% 30.32 in 9.0 mi NW 16.1 mph 21.9 mph N/A   Overcast
11:53 AM 36.0 °F 27.5 °F 30.0 °F 79% 30.30 in 10.0 mi NW 12.7 mph - N/A   Overcast
12:53 PM 37.0 °F 29.3 °F 30.9 °F 79% 30.30 in 10.0 mi NW 11.5 mph - N/A   Overcast
1:53 PM 37.9 °F 32.1 °F 30.9 °F 76% 30.29 in 10.0 mi WNW 8.1 mph - N/A   Overcast
2:53 PM 37.9 °F 30.9 °F 30.0 °F 73% 30.30 in 10.0 mi WNW 10.4 mph - N/A   Overcast
3:53 PM 37.9 °F 31.5 °F 30.9 °F 76% 30.32 in 10.0 mi NW 9.2 mph - N/A   Mostly Cloudy
4:04 PM 39.2 °F 34.2 °F 30.2 °F 70% 30.30 in 10.0 mi NW 6.9 mph - N/A   Scattered Clouds
4:53 PM 36.0 °F 33.3 °F 30.9 °F 82% 30.34 in 10.0 mi NW 3.5 mph - N/A   Clear
5:53 PM 34.0 °F - 32.0 °F 92% 30.34 in 10.0 mi Calm Calm - N/A   Clear
6:53 PM 33.1 °F - 32.0 °F 96% 30.36 in 9.0 mi Calm Calm - N/A   Clear
7:53 PM 30.9 °F 27.5 °F 30.0 °F 96% 30.37 in 8.0 mi SSE 3.5 mph - N/A   Clear
8:53 PM 30.9 °F 26.2 °F 30.0 °F 96% 30.37 in 7.0 mi South 4.6 mph - N/A   Clear
9:53 PM 30.9 °F - 28.9 °F 92% 30.37 in 7.0 mi Calm Calm - N/A   Clear
10:53 PM 30.9 °F 26.2 °F 30.0 °F 96% 30.38 in 8.0 mi South 4.6 mph - N/A   Clear
11:53 PM 30.9 °F - 30.0 °F 96% 30.36 in 7.0 mi Calm Calm - N/A   Clear